This is the latest recevied weather packets stored in our database for station/object NR0A-4. If no packets are shown the sender has not sent any weather packets the latest 10 day(s).
| Time | Temp. | Humidity | Pressure | Rain* | Wind** | Luminosity | Snow |
|---|---|---|---|---|---|---|---|
| 1788642305 | 31.67° C | 58% | 1012 hPa | 0 mm | - | 577 W/m² | - |
| 1788642004 | 31.67° C | 57% | 1012 hPa | 0 mm | - | 591 W/m² | - |
| 1788641704 | 31.67° C | 57% | 1012 hPa | 0 mm | - | 605 W/m² | - |
| 1788641404 | 31.11° C | 55% | 1012 hPa | 0 mm | - | 629 W/m² | - |
| 1788641104 | 31.11° C | 54% | 1012.1 hPa | 0 mm | - | 613 W/m² | - |
| 1788640804 | 31.11° C | 55% | 1012.2 hPa | 0 mm | - | 661 W/m² | - |
| 1788640505 | 31.11° C | 54% | 1012.3 hPa | 0 mm | - | 659 W/m² | - |
| 1788640204 | 30.56° C | 54% | 1012.4 hPa | 0 mm | - | 680 W/m² | - |
| 1788639904 | 30.56° C | 54% | 1012.4 hPa | 0 mm | - | 668 W/m² | - |
| 1788639604 | 30.56° C | 54% | 1012.4 hPa | 0 mm | - | 691 W/m² | - |
| 1788639304 | 30.56° C | 54% | 1012.7 hPa | 0 mm | - | 751 W/m² | - |
| 1788639005 | 30.56° C | 56% | 1012.8 hPa | 0 mm | - | 707 W/m² | - |
| 1788638704 | 30° C | 56% | 1012.9 hPa | 0 mm | - | 550 W/m² | - |
| 1788638404 | 30° C | 55% | 1012.8 hPa | 0 mm | - | 768 W/m² | - |
| 1788638104 | 29.44° C | 54% | 1012.6 hPa | 0 mm | - | 555 W/m² | - |
| 1788637804 | 29.44° C | 54% | 1012.7 hPa | 0 mm | - | 313 W/m² | - |
| 1788637504 | 29.44° C | 56% | 1012.7 hPa | 0 mm | - | 751 W/m² | - |
| 1788637204 | 28.89° C | 58% | 1012.8 hPa | 0 mm | - | 290 W/m² | - |
| 1788636904 | 28.89° C | 58% | 1012.7 hPa | 0 mm | - | 243 W/m² | - |
| 1788636605 | 28.33° C | 60% | 1013.1 hPa | 0 mm | - | 392 W/m² | - |
| 1788636304 | 27.78° C | 61% | 1013.4 hPa | 0 mm | - | 313 W/m² | - |
| 1788636004 | 27.78° C | 62% | 1013.7 hPa | 0 mm | - | 257 W/m² | - |
| 1788635704 | 27.78° C | 62% | 1013.9 hPa | 0 mm | - | 236 W/m² | - |
| 1788635405 | 27.22° C | 62% | 1014.2 hPa | 0 mm | - | 229 W/m² | - |
| 1788635140 | 27.22° C | 64% | 1014.1 hPa | 0 mm | - | 229 W/m² | - |
* Rain latest hour (hover to see other rain measurements)
** Current wind speed in m/s (hover to see current wind gust speed)